Location: Lafig�re
(44.4503°N, 4.0357°E)
Time: 03:32:20
(UTC+00:00)

Transit 4A - Pass Details

Date: 23 January 2021
Orbit: 866 x 978 km, 66.8° (Epoch: 02 March)

Event Time Altitude Azimuth Distance (km) Brightness Sun altitude
Rises 19:14:42 0° 217° (SW) 3,659 11.5 -27.3°
Reaches altitude 10° 19:17:16 10° 219° (SW) 2,719 10.8 -27.7°
Maximum altitude 19:23:39 72° 304° (NW) 1,025 8.1 -28.9°
Enters shadow 19:25:11 53° 9° (N) 1,193 8.3 -29.1°
Drops below altitude 10° 19:30:02 10° 29° (NNE) 2,718 - -30.0°
Sets 19:32:36 0° 31° (NNE) 3,658 - -30.5°
